Wetbulb
60.90 60.73 60.68 60.88 60.59 60.60 60.71 60.71 60.86 61.06 61.21 61.38 61.78 61.82 62.20 62.13 61.33 65.22 60.21 68.96 72.08 78.32 77.42 72.23 75.26 71.68 71.05 69.74 69.04 67.88 61.80 59.40 60.45 61.26 62.94 66.63 64.54 67.15 68.55 66.74 67.56 69.47 69.24 70.39 72.22
60.57 60.69 60.28 60.11 60.26 60.52 60.63 60.69 60.70 60.60 60.88 61.08 61.49 61.78 62.27 62.24 63.27 60.27 71.64 75.58 73.82 77.34 68.33 68.59 65.83 68.83 66.67 66.21 65.99 64.35 61.65 61.51 65.06 65.23 64.23 65.84 65.75 66.14 65.76 65.67 66.36 67.41 70.66 71.81 71.95
59.90 59.62 59.76 59.49 59.58 60.01 60.22 60.39 60.52 60.19 60.32 60.67 61.19 61.83 62.22 62.24 62.54 63.02 70.80 73.03 75.84 73.54 66.99 67.60 67.65 65.41 64.71 66.05 64.59 64.67 61.61 65.10 65.71 66.38 66.79 66.01 65.97 67.05 65.50 63.93 66.23 66.98 68.49 70.35 70.70
59.46 59.18 59.17 59.05 59.09 59.25 59.53 59.88 59.79 59.53 59.67 60.06 61.00 61.94 62.35 62.99 56.64 62.78 72.65 74.82 75.36 69.34 65.69 66.78 65.99 63.96 63.04 62.55 64.86 62.40 65.18 66.18 66.50 67.16 66.19 63.63 65.05 65.49 66.16 66.73 69.10 69.61 70.13 69.97 69.65
58.84 58.95 58.96 58.70 58.67 58.91 59.18 59.20 58.95 58.88 59.39 60.16 61.04 62.00 62.39 61.47 59.00 63.07 74.25 73.31 69.86 66.36 64.02 65.71 64.34 64.97 62.77 63.64 63.86 63.51 64.63 66.42 67.25 66.95 66.24 66.00 64.39 64.26 65.56 68.80 69.81 70.26 69.97 69.61 69.56
58.44 58.41 58.29 58.20 58.25 58.64 58.81 58.50 58.35 58.79 59.28 60.45 61.39 61.65 63.25 56.57 63.16 65.19 65.16 68.20 67.43 65.43 65.33 66.33 65.49 66.41 64.24 63.91 63.48 64.40 65.74 66.16 67.15 66.61 67.40 65.62 65.15 65.52 66.70 69.31 68.85 69.20 69.07 69.37 69.33
57.92 57.83 57.75 57.75 58.14 58.35 58.15 57.75 57.88 58.48 59.68 61.20 61.89 62.68 59.52 57.75 62.42 64.79 65.07 64.24 67.68 67.19 65.80 67.28 67.41 65.82 65.82 62.71 65.39 64.38 61.70 62.28 65.52 66.67 63.71 64.56 62.01 63.13 67.46 68.69 67.68 68.35 68.91 69.29 70.19
57.67 57.67 57.52 57.63 57.59 57.54 57.17 57.02 57.42 58.95 61.30 62.70 62.69 61.10 57.82 62.39 63.15 61.85 63.86 64.13 66.02 68.42 67.60 68.16 68.20 66.27 64.98 65.61 63.42 61.91 61.71 56.42 61.99 66.72 63.54 60.04 55.21 64.98 67.63 67.52 67.13 68.35 68.86 69.25 70.02
57.11 57.11 56.97 56.93 56.71 56.39 56.06 56.37 57.76 60.23 62.41 63.21 61.82 61.28 56.26 63.57 58.18 61.18 62.45 62.46 64.20 64.98 66.27 67.85 66.43 63.92 64.30 60.67 58.93 59.73 55.93 57.14 61.04 65.02 64.55 64.21 58.66 65.82 68.02 67.44 67.01 68.04 68.61 69.01 69.62
56.78 56.46 56.26 56.01 55.84 55.26 55.10 56.58 62.93 60.24 63.07 63.53 62.63 57.58 58.86 56.11 60.29 61.46 63.05 63.17 62.50 63.51 63.27 63.81 63.04 60.86 61.18 59.72 53.53 54.99 54.07 55.95 57.60 62.47 62.73 63.57 63.97 65.86 67.42 67.27 66.77 67.50 68.34 68.71 69.10
56.19 55.80 55.65 55.38 54.98 54.40 56.40 63.23 60.76 59.48 59.96 57.61 57.88 55.29 56.56 60.00 60.97 58.66 61.05 61.17 61.86 61.14 58.80 61.53 58.80 56.89 59.15 60.34 60.76 60.36 57.11 55.89 60.41 60.88 59.40 60.01 62.11 65.55 66.78 67.07 66.62 66.87 67.31 67.92 68.81
55.32 55.08 55.15 54.72 54.32 53.95 55.96 60.96 59.14 59.56 54.91 59.41 59.18 59.14 59.42 59.02 55.27 57.53 60.63 56.24 58.31 55.94 59.65 58.77 56.61 60.15 61.40 61.08 60.86 59.36 57.74 57.52 60.25 60.81 59.41 60.11 59.15 59.14 60.83 66.64 67.26 67.09 67.18 68.07 68.94
55.03 55.00 54.47 54.06 53.46 58.49 61.87 60.10 62.65 62.09 54.70 56.01 57.30 57.02 57.85 58.46 55.54 56.45 58.52 57.08 56.33 55.84 56.89 56.25 58.55 60.98 60.01 59.49 58.90 58.38 57.01 57.44 57.46 60.45 60.00 59.28 58.42 59.30 65.57 67.69 67.85 68.25 68.37 68.54 69.03
54.88 54.68 53.89 52.94 55.73 62.44 60.96 62.92 63.33 62.21 51.13 52.89 55.00 56.48 57.66 57.49 53.86 58.89 60.16 57.22 56.11 54.71 56.55 57.22 60.21 59.49 58.50 57.98 59.58 55.59 59.56 59.08 58.75 56.62 52.87 59.82 51.95 58.51 61.23 63.45 66.44 67.37 67.88 67.64 69.11
54.37 54.02 52.99 51.92 56.26 60.44 62.20 63.15 62.97 60.36 44.12 54.16 54.72 59.16 57.51 54.73 55.49 55.45 60.33 57.19 53.91 54.81 56.39 55.65 57.01 57.68 57.30 58.31 59.87 57.50 60.17 59.11 58.66 56.68 55.53 55.42 54.01 53.94 60.50 59.10 57.35 63.61 67.98 68.66 70.25
53.61 53.07 52.26 59.08 59.10 63.08 63.73 62.87 61.18 49.95 43.61 51.48 54.90 53.70 53.00 53.80 53.93 56.85 56.09 58.49 57.36 54.63 55.43 54.71 58.54 58.58 58.52 59.69 60.38 60.50 58.64 58.47 58.22 56.19 50.45 55.58 54.55 53.28 56.55 57.99 56.21 60.40 64.44 68.92 69.04
52.64 51.57 51.38 57.78 60.96 63.69 63.03 60.04 50.22 45.53 52.75 51.08 51.83 53.14 52.08 51.73 52.06 53.17 52.62 51.99 50.45 48.67 49.75 53.28 53.82 56.88 58.66 56.41 59.72 58.66 55.82 50.97 50.23 49.83 49.05 56.69 54.57 54.80 58.20 60.20 60.11 61.37 67.45 69.08 69.94
51.16 50.47 55.17 59.21 62.92 63.79 61.00 54.60 46.33 50.64 50.20 54.40 53.52 53.16 50.99 52.60 51.83 51.72 51.44 49.91 52.80 52.30 50.23 48.74 48.16 53.58 56.95 56.36 55.32 55.49 54.65 51.29 47.74 47.31 50.44 56.33 51.97 55.75 59.44 61.91 65.18 66.19 68.22 69.12 71.08
50.40 61.60 60.73 64.13 63.25 62.98 56.58 48.48 49.19 51.59 53.15 51.36 52.90 50.66 50.42 52.23 52.45 51.39 50.79 50.66 52.38 52.82 49.20 48.65 49.40 55.96 55.83 57.12 56.55 54.25 53.04 56.72 52.24 51.98 49.35 53.05 56.33 58.85 60.60 62.04 64.92 65.22 67.48 68.37 70.92
55.48 60.91 61.99 64.57 64.41 60.84 53.19 47.38 51.96 55.07 53.41 52.82 48.91 51.81 49.43 51.44 50.87 50.90 50.68 52.91 52.25 54.32 55.04 52.14 48.64 54.38 55.68 56.65 56.77 54.63 56.05 50.81 51.94 47.09 46.13 49.44 54.63 53.70 58.88 59.60 66.23 65.27 66.74 69.14 71.54
57.93 58.80 63.21 64.25 63.44 57.66 50.83 51.45 52.83 55.72 54.58 51.44 50.17 50.32 52.28 52.44 52.21 50.71 50.48 53.21 54.49 54.14 55.33 53.48 51.26 51.34 54.70 53.31 52.38 53.16 51.47 52.39 52.33 51.48 48.45 47.49 52.58 61.61 62.47 62.14 64.24 63.03 69.04 70.26 70.83
60.68 56.83 63.11 63.75 55.06 56.20 53.37 54.76 52.88 54.07 55.29 53.28 52.90 52.18 52.06 52.91 52.26 52.08 51.39 52.54 56.04 55.54 52.31 54.43 51.66 48.92 50.66 55.75 56.79 55.15 53.37 52.93 50.07 49.28 50.92 51.74 52.74 63.38 63.48 62.82 64.23 62.73 70.06 71.00 72.17
58.51 59.44 62.69 61.92 52.58 54.00 56.14 54.90 55.72 53.84 53.59 53.08 52.22 52.81 53.52 52.00 50.76 53.05 54.12 55.52 55.48 54.03 52.80 54.09 50.39 46.96 48.24 52.21 55.15 53.13 53.82 53.57 53.37 52.56 51.58 49.40 52.09 63.16 62.45 61.26 60.85 64.88 70.13 72.02 72.09
59.07 55.41 58.78 58.98 58.54 55.00 53.93 53.19 52.71 55.90 53.72 53.92 54.38 55.11 53.13 51.57 53.78 52.44 54.76 55.89 56.58 55.67 61.99 58.95 50.64 49.25 45.92 50.15 52.86 51.59 52.40 53.56 52.23 50.17 49.88 50.21 56.60 60.56 60.14 60.58 63.21 63.14 71.00 71.14 71.44
60.41 57.62 58.63 54.96 55.98 56.60 55.74 54.87 52.51 51.95 54.91 56.27 53.26 53.70 53.60 51.20 51.52 52.05 54.02 55.69 56.72 60.16 56.70 53.22 48.67 51.01 51.32 51.90 52.21 52.15 52.27 52.55 51.67 52.44 50.79 52.59 54.88 61.39 61.71 62.65 68.27 69.97 70.59 70.49 70.89
53.06 54.23 56.37 55.34 57.54 56.58 53.23 53.97 53.01 54.03 55.03 54.67 54.48 54.36 55.13 52.21 52.77 51.80 55.65 57.75 55.39 56.77 55.38 54.68 49.89 51.22 49.74 51.73 51.57 50.24 52.36 52.79 53.10 52.87 52.66 52.86 52.84 58.40 66.24 69.88 69.62 70.02 70.02 69.77 70.02
55.87 56.45 55.37 53.05 55.77 54.46 55.16 56.42 55.98 57.79 57.29 57.02 56.73 56.78 56.12 54.44 57.69 58.52 59.66 60.27 59.97 58.17 57.03 54.06 51.74 50.17 47.72 51.22 50.85 48.03 50.95 51.93 52.77 53.97 53.32 50.67 54.76 58.56 64.05 68.43 69.59 70.37 70.82 70.26 69.97
MSLP
1014.94 1014.63 1014.14 1013.65 1013.09 1012.56 1011.92 1011.40 1010.98 1010.36 1009.81 1009.45 1009.01 1008.66 1008.19 1007.56 1005.93 1004.83 1003.40 1002.12 1002.14 1002.20 1002.13 1000.71 999.71 998.17 997.30 996.63 995.75 995.35 996.20 997.23 998.40 999.27 999.61 1000.23 1000.70 1001.34 1001.52 1001.55 1002.40 1003.54 1004.97 1006.57 1007.87
1015.08 1014.58 1014.17 1013.69 1013.11 1012.54 1011.90 1011.30 1010.82 1010.32 1009.69 1009.24 1008.82 1008.43 1008.05 1007.64 1005.70 1003.14 1001.54 1001.70 1001.88 1002.21 1001.72 999.71 997.90 996.99 996.31 995.29 995.34 995.50 996.70 997.78 998.47 999.13 999.82 1000.38 1000.92 1001.21 1001.48 1001.88 1002.46 1003.51 1005.01 1006.30 1007.35
1015.17 1014.68 1014.16 1013.66 1013.13 1012.49 1011.86 1011.17 1010.66 1010.16 1009.55 1008.96 1008.59 1008.22 1007.96 1007.56 1004.82 1001.10 1001.35 1001.52 1001.72 1002.01 1001.07 1000.15 998.52 997.02 995.82 995.63 995.32 995.84 996.95 998.36 999.15 999.27 999.64 1000.07 1000.34 1001.44 1000.98 1001.67 1002.45 1003.88 1005.07 1005.81 1007.11
1015.14 1014.62 1014.17 1013.69 1013.08 1012.46 1011.76 1011.11 1010.50 1009.94 1009.35 1008.67 1008.40 1008.08 1007.64 1006.67 1002.88 1000.80 1001.15 1001.33 1001.54 1001.61 1000.64 999.39 997.76 996.50 996.05 995.42 996.25 996.62 997.33 998.43 998.99 999.40 999.65 999.93 1000.32 1000.85 1001.16 1001.65 1002.65 1004.00 1005.19 1005.72 1006.11
1015.11 1014.61 1014.09 1013.56 1012.97 1012.32 1011.64 1010.97 1010.30 1009.72 1009.15 1008.50 1008.32 1008.12 1006.49 1004.50 1001.11 1000.71 1000.91 1001.08 1001.27 1001.11 999.89 998.48 996.90 995.39 994.92 995.15 997.12 996.59 997.76 998.71 999.17 999.43 999.95 1000.48 1001.03 1001.49 1001.93 1002.17 1003.18 1004.16 1004.91 1005.46 1005.66
1015.20 1014.60 1013.94 1013.30 1012.72 1012.13 1011.41 1010.76 1010.06 1009.37 1008.93 1008.32 1008.15 1008.03 1006.59 1002.49 999.58 1000.12 1000.22 1000.26 999.99 999.90 998.96 997.82 996.58 995.95 995.00 995.62 996.49 996.93 997.46 998.30 998.97 999.76 1000.28 1000.94 1001.45 1001.64 1002.35 1002.53 1003.48 1004.26 1004.47 1004.78 1005.10
1015.29 1014.59 1013.88 1013.17 1012.48 1011.76 1011.11 1010.46 1009.84 1009.12 1008.47 1008.07 1008.07 1007.48 1004.42 1001.01 999.63 999.44 999.83 999.50 999.07 998.73 998.31 997.24 996.91 996.40 995.80 995.36 996.23 997.18 999.81 999.68 998.68 999.33 1001.10 1001.15 1001.77 1001.43 1002.15 1002.76 1003.43 1003.89 1004.02 1004.21 1004.49
1015.32 1014.63 1013.85 1013.07 1012.21 1011.44 1010.71 1010.07 1009.51 1008.78 1008.14 1007.93 1007.91 1006.84 1002.71 999.25 999.44 999.50 999.39 999.09 998.60 998.27 998.14 997.51 997.24 996.95 996.06 995.72 996.71 997.46 1000.89 1003.72 999.98 999.45 1001.90 1000.74 1000.97 1001.07 1001.88 1002.46 1002.97 1003.34 1003.44 1003.73 1003.90
1015.32 1014.56 1013.77 1013.00 1012.11 1011.16 1010.29 1009.38 1008.86 1008.23 1007.97 1007.80 1007.21 1005.38 1001.22 1000.10 999.50 999.27 999.11 998.58 998.31 998.27 998.12 997.83 997.79 997.25 996.25 995.98 996.72 1000.01 1001.34 1001.40 999.45 998.30 999.85 999.53 1001.74 1000.18 1001.32 1001.81 1002.30 1002.80 1003.13 1003.47 1003.78
1015.23 1014.48 1013.60 1012.70 1011.80 1011.06 1009.94 1008.21 1007.69 1007.84 1007.43 1006.66 1005.41 1004.08 1000.40 998.90 998.29 998.32 998.26 998.57 997.94 997.78 997.76 997.63 997.51 996.96 995.83 995.34 997.17 1000.21 1002.44 1000.45 999.89 997.70 997.64 997.94 998.60 1000.03 1000.97 1001.14 1001.45 1001.91 1002.58 1003.28 1003.66
1015.20 1014.38 1013.51 1012.60 1011.56 1010.98 1009.93 1007.32 1007.38 1006.77 1005.47 1003.05 1001.61 1000.41 998.79 998.23 998.47 998.68 998.50 998.38 998.28 997.65 997.25 997.13 996.92 996.11 995.09 994.67 996.16 997.28 999.67 998.41 997.22 996.39 996.87 997.00 997.95 1000.70 1000.86 1000.91 1000.59 1001.03 1001.89 1002.54 1002.88
1015.03 1014.26 1013.40 1012.39 1011.25 1010.25 1010.35 1007.11 1005.56 1005.20 1003.57 1001.75 1000.53 999.54 998.65 998.76 998.49 998.21 998.57 998.34 998.00 997.40 997.05 996.74 995.87 995.57 994.82 994.81 995.23 995.63 995.86 995.64 995.65 995.61 996.05 997.21 999.36 1000.93 1003.40 1000.73 1000.24 1000.35 1000.90 1001.78 1002.06
1014.97 1014.12 1013.24 1012.12 1010.88 1009.42 1007.13 1005.77 1005.33 1004.47 1003.00 999.83 998.93 998.53 998.61 998.85 998.23 997.24 997.72 997.56 997.26 997.19 996.51 995.93 995.29 995.02 994.55 994.09 994.22 994.95 994.85 995.11 995.92 995.57 995.08 996.03 997.96 1000.19 1000.18 1000.27 999.86 999.87 1000.34 1000.98 1001.51
1014.91 1014.14 1013.37 1012.14 1010.70 1007.87 1005.80 1005.41 1004.93 1004.46 1002.29 998.21 997.48 997.49 997.81 998.09 997.64 997.32 996.82 997.28 997.01 996.46 996.26 995.47 995.10 994.32 994.20 993.98 993.84 994.13 994.16 994.25 994.73 994.91 994.78 995.73 996.74 999.33 1000.55 1000.55 1000.15 999.87 999.91 1000.14 1000.99
1014.73 1014.09 1013.35 1013.67 1011.23 1007.26 1005.70 1005.39 1005.09 1004.23 1000.64 996.28 996.91 997.35 997.24 997.54 996.25 996.41 996.37 996.75 996.43 996.05 995.78 995.11 994.68 994.08 993.54 993.33 993.42 993.99 993.73 994.33 994.92 995.19 995.29 995.45 997.51 1002.09 1002.70 1002.64 1001.67 1000.05 999.48 999.50 1000.32
1014.43 1013.98 1013.42 1011.23 1010.70 1007.31 1005.94 1005.40 1004.72 1003.05 998.42 996.32 996.76 997.11 997.05 997.08 996.62 995.41 996.12 996.29 996.46 996.10 995.42 994.93 994.38 993.96 993.46 993.40 993.66 994.04 994.12 994.15 994.65 995.06 995.41 996.47 998.13 1002.49 1003.14 1003.14 1002.16 1000.63 1000.31 998.87 999.83
1013.84 1013.53 1013.61 1011.38 1007.50 1006.81 1006.25 1005.15 1003.38 1000.49 996.76 996.04 995.83 996.09 996.51 996.19 996.35 995.91 995.74 996.00 995.95 995.74 995.17 994.76 994.13 993.42 993.28 993.46 993.40 994.03 994.19 994.09 994.47 994.81 995.38 997.21 998.96 1001.75 1002.85 1005.44 1002.98 999.96 998.32 998.37 999.45
1012.86 1012.52 1010.60 1009.44 1007.38 1006.97 1006.17 1004.71 1001.93 998.59 996.95 995.88 995.83 995.57 995.60 995.45 995.46 995.65 995.48 995.57 995.57 995.24 994.72 994.26 993.58 993.46 993.23 993.34 993.44 993.66 993.94 993.77 993.73 994.39 995.42 997.52 997.93 1000.22 1001.63 1000.71 999.24 997.28 997.02 997.80 999.45
1011.78 1009.34 1008.68 1006.74 1007.55 1007.04 1005.93 1003.28 1000.53 998.42 997.19 996.28 996.19 995.77 995.43 995.20 994.63 994.88 994.93 994.95 994.88 994.97 994.41 993.60 992.89 992.64 992.90 993.25 993.78 993.53 993.12 993.53 993.54 994.06 994.59 995.26 997.23 999.31 1000.60 1000.17 998.72 997.45 997.02 997.38 998.82
1011.79 1008.04 1005.86 1006.05 1006.39 1006.31 1005.14 1002.51 1000.01 998.82 998.33 997.93 997.40 996.16 994.93 994.28 994.41 994.24 994.10 994.21 994.01 993.98 994.23 993.46 992.80 991.95 991.68 992.48 992.90 993.46 993.32 993.00 993.33 993.63 994.10 994.65 995.75 998.18 999.93 1002.09 998.74 998.55 997.58 997.71 998.96
1011.05 1006.82 1005.67 1005.77 1006.06 1005.49 1003.74 1001.65 1000.05 999.12 999.05 999.13 998.25 997.05 995.67 994.54 993.71 994.05 993.72 993.37 993.21 993.14 993.42 993.62 993.07 992.22 991.46 991.30 992.24 992.96 993.05 992.90 992.84 992.93 993.21 993.68 995.43 996.44 998.37 999.22 998.15 998.86 998.19 998.32 999.10
1008.92 1005.44 1005.77 1005.69 1005.39 1003.90 1002.66 1001.48 1000.32 999.58 999.18 999.64 999.23 998.25 997.05 995.95 994.90 994.19 993.47 992.78 992.51 992.64 992.61 993.15 993.28 992.62 991.74 991.33 991.78 992.51 992.61 992.82 992.89 993.24 993.35 993.40 994.15 996.09 997.20 998.63 998.73 998.63 998.81 999.04 999.61
1009.32 1005.35 1005.19 1005.25 1003.87 1002.29 1001.14 1000.81 1000.16 1000.09 999.98 999.61 999.19 998.83 998.20 997.20 996.63 995.57 994.16 993.25 993.22 993.24 993.60 993.92 993.86 993.15 992.18 991.61 991.43 991.89 992.34 992.40 992.22 992.50 992.72 993.01 995.12 996.08 998.05 999.71 1000.43 999.72 999.20 999.54 1000.08
1009.87 1005.63 1004.51 1004.76 1004.09 1003.04 1001.48 1000.53 1000.18 1000.18 1000.54 1000.05 999.53 999.13 998.53 997.86 997.39 996.43 994.92 993.90 994.27 994.61 994.84 994.95 994.13 993.03 992.22 991.60 991.22 991.30 991.74 992.03 991.90 991.53 992.00 992.16 993.33 994.71 996.29 997.43 998.73 999.26 999.69 1000.16 1000.38
1009.12 1006.08 1005.56 1004.08 1003.33 1002.34 1001.82 1001.29 1000.63 1000.15 1000.18 1000.34 1000.20 1000.01 999.41 998.43 997.68 996.65 995.96 994.94 994.43 995.06 995.23 995.05 994.27 993.47 992.74 992.14 991.44 990.93 990.70 991.30 991.83 991.61 991.36 991.18 991.86 992.90 993.88 995.24 996.64 997.75 999.43 1000.14 1000.93
1010.45 1009.01 1007.65 1006.05 1004.30 1003.29 1002.55 1002.02 1001.36 1000.68 1000.97 1000.91 1000.88 1000.06 999.12 998.67 997.88 996.90 996.74 995.89 994.97 994.54 994.88 994.98 994.53 994.20 993.47 992.63 991.90 991.19 990.68 990.56 990.71 991.23 991.51 991.39 991.06 991.30 991.63 994.56 995.88 996.88 998.49 999.74 1000.86
1012.07 1010.71 1009.24 1006.78 1004.62 1003.38 1003.39 1002.74 1002.29 1002.04 1001.64 1001.71 1002.09 1001.07 1000.03 998.51 998.34 998.21 997.88 997.38 996.34 995.02 994.45 994.42 994.30 994.33 993.70 993.14 992.51 991.50 990.85 990.64 990.63 990.55 990.64 990.77 990.98 991.21 992.30 993.28 994.71 996.82 998.14 999.59 1000.43
Wind_Speed
18 17 18 18 19 19 19 19 19 19 19 18 18 16 16 18 24 8 10 1 3 11 6 15 18 18 16 17 4 9 12 13 17 12 6 11 13 12 10 7 8 17 25 22 22
18 18 18 19 19 19 19 19 20 20 20 18 17 16 16 16 10 14 4 6 7 9 11 19 16 16 12 9 7 13 11 16 15 14 13 13 11 11 11 9 15 18 25 25 23
18 19 19 20 20 20 20 20 20 20 20 19 18 17 15 14 9 11 5 5 7 10 16 16 19 21 20 10 12 14 14 15 12 10 13 11 9 12 9 12 14 20 19 20 27
19 20 20 21 21 21 21 21 21 21 21 20 18 17 16 7 7 6 5 5 4 9 15 18 20 21 13 5 7 9 15 12 10 11 9 11 11 11 13 12 19 20 20 16 15
20 20 20 20 21 21 21 21 21 21 20 20 17 15 11 9 13 7 8 6 8 10 15 18 21 7 14 12 5 16 12 12 9 9 12 14 12 10 11 13 18 21 19 17 16
20 20 21 22 21 21 21 21 22 21 20 18 15 15 8 14 7 10 8 9 13 14 15 17 17 9 12 17 15 5 12 15 12 10 13 10 2 9 10 15 18 19 18 16 12
20 21 22 23 23 23 22 22 22 21 19 16 11 8 12 16 3 6 8 11 13 13 15 17 9 15 18 4 2 6 29 30 8 12 9 15 9 11 13 16 18 18 16 15 15
20 21 22 23 25 25 24 23 22 20 16 13 8 7 9 2 4 10 10 13 12 12 14 15 9 15 16 2 7 13 24 12 25 22 12 21 9 15 16 17 18 17 14 13 14
20 21 23 24 25 26 26 26 22 18 12 11 7 9 15 2 10 15 16 15 15 15 14 13 9 16 20 11 12 18 13 11 13 12 20 13 6 17 18 16 16 15 14 13 11
20 22 24 25 26 25 28 27 3 7 9 10 11 10 13 13 9 14 13 10 13 15 16 15 13 14 17 14 7 14 8 24 27 14 10 13 15 19 19 17 15 15 15 13 13
21 22 24 25 27 23 16 6 6 7 12 15 2 15 1 2 5 6 11 11 14 15 19 18 15 16 22 17 14 22 30 34 20 7 8 13 1 16 15 17 18 15 15 15 16
22 23 24 27 28 27 9 9 8 8 11 16 20 18 14 2 9 15 16 17 17 19 20 19 19 21 23 8 15 7 14 11 9 4 6 14 16 30 30 17 16 15 17 15 16
22 23 25 28 30 13 10 6 8 10 9 16 22 20 17 14 14 14 19 19 19 20 22 21 21 20 20 20 8 11 15 7 10 17 8 8 6 11 14 13 13 14 16 17 15
21 22 24 29 8 10 7 4 7 6 7 13 15 12 17 18 15 19 19 18 19 20 23 21 22 23 15 21 10 12 12 9 16 10 14 10 11 7 5 3 4 13 14 17 16
22 22 22 10 13 8 10 9 9 8 8 14 13 5 10 15 8 21 19 17 22 21 16 21 23 22 21 21 16 16 19 5 9 15 17 22 4 5 15 6 18 17 16 16 17
22 20 21 3 9 14 12 11 9 8 11 10 11 11 14 19 21 10 20 17 18 22 20 20 21 23 21 20 14 13 19 16 13 11 13 9 11 4 7 10 18 32 30 18 20
24 19 10 10 4 13 11 9 7 10 4 9 11 14 15 17 19 17 21 20 19 18 20 20 22 23 16 24 16 18 17 12 12 13 7 6 3 7 9 23 28 31 22 17 20
27 21 9 9 8 10 8 9 9 12 20 6 7 3 15 18 18 22 15 19 22 23 15 19 19 22 12 16 16 21 20 14 16 15 4 4 5 6 14 33 31 11 18 18 24
32 5 6 7 12 7 8 10 12 16 15 6 10 11 14 14 15 20 21 20 21 25 23 19 22 17 25 18 21 20 19 20 18 19 17 11 3 14 11 17 5 8 17 17 24
7 10 4 6 6 6 8 15 19 16 8 10 11 19 14 17 12 15 19 19 22 24 25 23 20 21 21 20 19 19 19 16 12 17 18 14 11 7 21 12 6 5 12 14 19
6 7 6 6 6 7 9 13 16 13 2 8 16 21 13 17 16 15 19 17 19 21 23 22 22 20 16 17 15 14 17 19 17 12 12 14 5 19 25 20 11 3 9 13 17
8 3 5 5 7 8 11 16 14 16 2 6 16 14 16 16 12 12 18 12 13 13 18 18 14 17 21 13 18 16 18 19 13 14 15 16 2 16 23 9 0 3 11 14 15
7 2 6 7 8 8 14 13 10 11 10 15 10 13 16 13 10 13 19 7 12 7 9 8 13 16 22 19 14 13 15 20 20 17 17 16 4 14 19 16 10 11 16 14 16
7 3 6 7 11 14 14 13 7 12 11 17 14 12 14 13 13 15 16 4 6 6 10 8 16 16 16 15 15 21 18 21 20 15 15 18 9 13 27 28 27 18 17 17 16
6 7 14 6 8 9 10 11 14 6 11 10 15 16 16 15 14 16 17 17 8 6 7 12 18 17 17 20 21 19 18 19 19 22 19 18 5 17 19 19 25 20 17 18 18
7 6 10 12 14 10 8 10 16 9 10 10 15 15 16 16 18 12 14 16 16 12 11 13 15 15 18 19 20 20 17 14 21 20 20 23 21 17 17 22 19 22 22 20 19
8 8 7 10 14 6 10 10 11 18 12 5 10 15 18 3 15 16 16 17 22 8 10 15 13 13 15 16 19 20 18 16 14 16 16 18 18 15 6 19 22 21 19 20 20
Wind_Direction
355 352 349 345 343 339 335 333 331 328 325 321 319 319 319 316 306 222 251 113 121 169 249 260 229 253 235 257 319 300 77 57 68 88 119 126 88 79 120 116 59 128 138 141 140
352 349 347 344 340 337 333 330 328 326 322 319 317 320 319 322 284 263 197 142 169 167 243 260 307 232 256 324 198 90 69 57 66 76 75 78 117 148 125 110 108 113 124 150 150
350 348 344 343 340 336 331 328 325 324 319 316 317 318 316 313 268 241 160 183 160 183 256 286 286 278 275 192 77 87 101 95 64 79 97 124 147 141 168 132 121 125 134 153 160
346 343 340 339 337 334 329 325 322 321 317 313 316 316 310 265 237 81 171 202 194 237 256 271 270 259 232 176 99 99 88 89 89 89 101 90 72 62 55 99 121 135 143 156 165
342 339 336 335 332 330 326 323 320 316 313 309 312 317 314 230 257 141 179 185 213 221 249 273 292 352 289 84 123 121 120 105 110 107 78 68 80 97 101 112 126 136 156 161 176
339 337 335 332 330 327 323 321 318 312 309 305 309 310 247 253 75 154 199 192 229 214 253 261 305 333 301 122 168 137 147 144 146 117 107 89 103 110 122 128 134 150 163 172 175
338 335 333 330 327 324 321 318 315 310 305 301 303 293 268 252 304 198 208 233 228 232 251 266 302 307 298 225 156 165 49 11 152 146 81 61 342 132 145 143 150 164 173 165 177
335 333 330 328 325 322 318 314 310 303 298 291 291 275 260 229 276 238 237 240 251 250 255 293 316 291 284 356 159 252 101 178 274 117 139 125 228 149 158 160 163 170 175 167 175
334 331 329 326 323 320 317 308 299 287 271 281 252 231 259 142 229 228 230 232 226 233 247 257 279 271 276 246 221 4 20 284 247 146 161 173 246 157 172 173 170 173 176 177 180
332 329 327 325 321 321 318 294 293 285 229 246 260 267 240 235 215 217 215 250 257 223 232 232 243 255 255 240 132 185 56 292 269 166 197 182 156 163 179 177 174 179 171 184 180
330 327 325 323 319 321 332 306 218 189 229 244 216 239 76 178 38 217 242 215 242 248 228 224 236 237 252 266 143 188 178 207 233 145 228 273 266 116 187 189 175 181 170 184 183
329 326 325 322 317 314 277 273 36 337 293 266 254 251 268 271 267 214 210 219 215 236 221 231 225 244 255 218 268 279 267 244 23 139 232 106 197 108 249 201 185 181 170 187 185
327 326 326 322 317 291 266 8 318 313 267 272 225 230 226 228 247 243 202 212 222 225 236 228 236 224 261 273 222 257 271 115 159 263 276 291 179 180 169 194 192 191 185 185 184
325 325 327 327 296 336 280 10 314 325 274 243 188 219 217 213 241 245 197 221 228 233 229 241 239 258 215 261 268 241 275 324 315 288 285 210 285 164 297 164 295 207 199 189 183
322 323 321 330 312 287 6 322 323 266 275 129 157 90 183 201 266 201 238 205 233 229 226 234 242 245 256 237 224 261 284 193 282 294 286 284 176 257 271 356 333 278 221 203 167
319 320 327 225 207 259 303 311 276 234 245 161 138 196 217 205 243 197 211 211 229 242 249 246 251 241 249 258 259 260 268 276 279 271 270 7 15 134 172 211 194 252 265 193 162
316 313 298 308 271 343 309 273 228 244 154 166 189 192 206 208 220 223 195 210 218 225 237 243 246 258 238 243 225 246 251 261 245 251 265 74 98 163 109 279 232 220 216 181 155
314 309 229 241 295 302 287 246 254 236 250 57 355 215 218 226 197 225 198 223 216 229 226 231 226 240 221 256 255 228 250 254 255 261 167 314 235 158 105 261 211 170 158 166 138
310 202 225 219 222 257 256 232 229 265 347 15 283 232 252 237 254 209 201 226 226 219 239 241 234 230 222 217 234 254 249 244 275 280 276 238 179 136 165 359 242 152 147 158 144
304 279 200 128 195 228 243 259 277 324 358 332 289 286 249 207 223 233 215 220 228 224 227 247 259 244 214 211 214 237 260 250 229 254 272 272 204 116 81 283 5 299 150 149 140
242 227 93 154 203 229 244 251 263 264 175 284 288 305 287 296 200 216 247 225 220 231 224 232 255 265 271 197 213 219 241 260 279 281 276 262 134 150 152 179 173 266 156 154 144
294 271 127 185 221 225 245 249 272 293 69 259 278 295 307 322 318 296 268 218 227 243 237 218 251 253 260 238 205 231 255 236 248 258 267 281 188 170 162 129 276 94 167 156 149
279 31 144 218 254 259 232 241 294 315 276 265 259 262 275 290 295 284 284 46 31 217 258 227 235 251 254 235 199 242 228 260 245 242 257 276 123 172 125 110 319 249 174 154 149
276 258 147 196 267 286 299 317 259 231 254 288 303 286 284 263 269 277 284 274 127 269 360 302 277 239 247 246 246 208 223 243 252 256 243 250 162 152 167 165 198 211 171 161 155
260 358 14 289 325 301 292 317 299 272 209 225 249 258 272 278 259 261 248 283 182 178 247 259 256 266 265 259 270 273 230 211 239 268 278 285 271 199 183 184 165 151 159 163 156
343 344 342 301 286 267 258 261 272 290 292 308 315 267 261 235 266 280 336 316 286 191 209 240 249 265 274 267 267 272 271 262 220 224 255 272 277 298 115 136 155 158 166 169 155
11 337 299 293 286 303 319 314 297 318 302 286 304 265 301 296 343 341 312 301 296 294 262 217 230 236 252 255 252 261 258 262 261 270 236 239 258 270 174 159 159 158 164 169 162